Volver al catálogo

DELTA 1 R/B

ActivoPO
NORAD 6127·ROCKET BODY·🇺🇸 United States

Lanzado Jul 23, 1972 desde Vandenberg Space Force Base

Loading…

Próximos Pases (próximas 24 horas)

TLE

ActualizadoSource: Space-Track

Época: Sep 14, 2026, 15:16 UTC

1 06127U 72058B   26257.63619226  .00001491  00000-0  16079-3 0  9996
2 06127  98.4535 128.6314 0083879   2.6540 357.5102 14.87632440713080

Sigue DELTA 1 R/B en tiempo real con AllMySat

Download on the App Store